73.0°F
Current conditions from King Hill
Updated every 5 minutes
 
  Monday September 1, 2014

Station Historical Data
Daily Summary for March 27, 2012 Units:  Metric    English   Both
« Previous Day
Next Day »
Daily Weekly Monthly Yearly Custom
  High: Low: Average:
Temperature: 2 °C -8.6 °C -3.3 °C
Dew Point: -9.1 °C -17.3 °C -14.4 °C
Humidity: 60% 24% 43%
Wind Speed: 14.5km/h 1.6km/h 4.3km/h
Wind Gust: 33.8km/h - -
Wind- - South
Pressure: 1026.6 hPa 1017.5 hPa -
Precipitation: 0 mm    
Historical Graphs
 
 
Tabular Data for March 27, 2012
Time Temperature Dew Point Pressure Wind Wind Speed Wind Gust Humidity Daily Rainfall
00:00 -5 °C -15.7 °C 1020.2 hPa NNE 1.6 km/h 19.3 km/h 43% 2.5 mm
00:05 -5.2 °C -15.6 °C 1020.2 hPa North 1.6 km/h 12.9 km/h 44% 0 mm
00:09 -5.3 °C -15.7 °C 1020.2 hPa North 3.2 km/h 11.3 km/h 44% 0 mm
00:14 -5.3 °C -15.4 °C 1020.2 hPa North 3.2 km/h 20.9 km/h 45% 0 mm
00:19 -5.3 °C -15.9 °C 1020.2 hPa North 9.7 km/h 24.1 km/h 43% 0 mm
00:24 -5.2 °C -15.6 °C 1020.2 hPa NNE 8 km/h 24.1 km/h 44% 0 mm
00:29 -5.3 °C -15.9 °C 1020.2 hPa North 4.8 km/h 24.1 km/h 43% 0 mm
00:34 -5.3 °C -15.9 °C 1020.2 hPa North 6.4 km/h 20.9 km/h 43% 0 mm
00:39 -5.3 °C -15.9 °C 1020.2 hPa NNE 6.4 km/h 20.9 km/h 43% 0 mm
00:45 -5.3 °C -15.7 °C 1020.5 hPa North 3.2 km/h 20.9 km/h 44% 0 mm
00:54 -5.4 °C -16.1 °C 1020.5 hPa North 8 km/h 27.4 km/h 43% 0 mm
00:59 -5.4 °C -16.1 °C 1020.5 hPa North 3.2 km/h 27.4 km/h 43% 0 mm
01:04 -5.6 °C -16.2 °C 1020.5 hPa North 4.8 km/h 14.5 km/h 43% 0 mm
01:14 -5.7 °C -16.3 °C 1020.5 hPa North 3.2 km/h 19.3 km/h 43% 0 mm
01:19 -5.8 °C -16.1 °C 1020.9 hPa North 6.4 km/h 17.7 km/h 44% 0 mm
01:24 -5.8 °C -16.1 °C 1020.5 hPa NNE 4.8 km/h 32.2 km/h 44% 0 mm
01:29 -5.8 °C -16.1 °C 1020.9 hPa NNE 3.2 km/h 32.2 km/h 44% 0 mm
01:34 -5.7 °C -16.3 °C 1020.9 hPa North 8 km/h 25.7 km/h 43% 0 mm
01:39 -5.8 °C -15.8 °C 1020.9 hPa North 1.6 km/h 25.7 km/h 45% 0 mm
01:44 -5.9 °C -15.9 °C 1020.9 hPa North 4.8 km/h 19.3 km/h 45% 0 mm
01:49 -5.9 °C -15.9 °C 1020.9 hPa North 8 km/h 20.9 km/h 45% 0 mm
01:59 -5.9 °C -16.5 °C 1021.2 hPa North 4.8 km/h 33.8 km/h 43% 0 mm
02:04 -6.1 °C -16.1 °C 1021.2 hPa North 3.2 km/h 12.9 km/h 45% 0 mm
02:09 -6 °C -16.6 °C 1021.2 hPa North 9.7 km/h 29 km/h 43% 0 mm
02:14 -6.1 °C -16.1 °C 1020.9 hPa NNE 6.4 km/h 29 km/h 45% 0 mm
02:19 -6.1 °C -16.7 °C 1020.9 hPa North 4.8 km/h 24.1 km/h 43% 0 mm
02:24 -6.2 °C -16.7 °C 1020.9 hPa North 6.4 km/h 20.9 km/h 43% 0 mm
02:29 -6.3 °C -16.6 °C 1021.2 hPa North 1.6 km/h 20.9 km/h 44% 0 mm
02:34 -6.4 °C -16.4 °C 1021.2 hPa NNE 4.8 km/h 22.5 km/h 45% 0 mm
02:39 -6.3 °C -16.3 °C 1021.2 hPa NNE 3.2 km/h 25.7 km/h 45% 0 mm
02:44 -6.4 °C -16.4 °C 1021.2 hPa North 3.2 km/h 25.7 km/h 45% 0 mm
02:55 -6.5 °C -16.8 °C 1021.2 hPa NNW 3.2 km/h 20.9 km/h 44% 0 mm
03:04 -6.7 °C -16.9 °C 1021.6 hPa NNW 3.2 km/h 20.9 km/h 44% 0 mm
03:09 -6.8 °C -16.7 °C 1021.6 hPa NNW 3.2 km/h 19.3 km/h 45% 0 mm
03:14 -6.8 °C -16.6 °C 1021.6 hPa NNW 3.2 km/h 19.3 km/h 46% 0 mm
03:19 -6.8 °C -16.8 °C 1021.6 hPa NNW 1.6 km/h 14.5 km/h 45% 0 mm
03:24 -7 °C -16.7 °C 1021.6 hPa North 3.2 km/h 14.5 km/h 46% 0 mm
03:29 -7 °C -16.7 °C 1021.6 hPa North 1.6 km/h 20.9 km/h 46% 0 mm
03:34 -7 °C -16.9 °C 1021.9 hPa NNW 4.8 km/h 20.9 km/h 45% 0 mm
03:39 -7 °C -16.7 °C 1021.9 hPa North 1.6 km/h 19.3 km/h 46% 0 mm
03:44 -7.1 °C -16.7 °C 1021.9 hPa NNW 6.4 km/h 19.3 km/h 46% 0 mm
03:50 -7.1 °C -16.5 °C 1021.9 hPa North 3.2 km/h 17.7 km/h 47% 0 mm
03:59 -7.1 °C -16.8 °C 1022.2 hPa North 3.2 km/h 20.9 km/h 46% 0 mm
04:04 -7.2 °C -16.6 °C 1022.2 hPa North 4.8 km/h 17.7 km/h 47% 0 mm
04:09 -7.2 °C -16.6 °C 1022.2 hPa North 3.2 km/h 17.7 km/h 47% 0 mm
04:14 -7.2 °C -16.9 °C 1022.2 hPa North 4.8 km/h 16.1 km/h 46% 0 mm
04:19 -7.2 °C -16.6 °C 1022.2 hPa North 1.6 km/h 24.1 km/h 47% 0 mm
04:24 -7.3 °C -16.7 °C 1022.2 hPa North 1.6 km/h 24.1 km/h 47% 0 mm
04:29 -7.3 °C -16.7 °C 1022.2 hPa North 1.6 km/h 16.1 km/h 47% 0 mm
04:34 -7.3 °C -16.7 °C 1022.6 hPa NNE 4.8 km/h 17.7 km/h 47% 0 mm
04:39 -7.3 °C -16.7 °C 1022.6 hPa North 3.2 km/h 17.7 km/h 47% 0 mm
04:44 -7.3 °C -16.7 °C 1022.6 hPa NNE 6.4 km/h 17.7 km/h 47% 0 mm
04:49 -7.3 °C -16.5 °C 1022.6 hPa North 1.6 km/h 17.7 km/h 48% 0 mm
04:54 -7.4 °C -16.6 °C 1022.9 hPa Calm   17.7 km/h 48% 0 mm
04:59 -7.6 °C -16.7 °C 1022.9 hPa NNE 1.6 km/h 14.5 km/h 48% 0 mm
05:04 -7.6 °C -16.5 °C 1023.2 hPa North 1.6 km/h 14.5 km/h 49% 0 mm
05:09 -7.7 °C -16.8 °C 1023.2 hPa NNE 3.2 km/h 12.9 km/h 48% 0 mm
05:14 -7.7 °C -16.3 °C 1023.2 hPa NNE 1.6 km/h 14.5 km/h 50% 0 mm
05:20 -7.8 °C -16.4 °C 1023.2 hPa Calm   16.1 km/h 50% 0 mm
05:29 -7.9 °C -16.3 °C 1023.6 hPa North 3.2 km/h 19.3 km/h 51% 0 mm
05:34 -7.9 °C -16.6 °C 1023.6 hPa North 6.4 km/h 19.3 km/h 50% 0 mm
05:39 -7.9 °C -16.3 °C 1023.6 hPa NNW 3.2 km/h 19.3 km/h 51% 0 mm
05:44 -7.9 °C -16.3 °C 1023.6 hPa North 1.6 km/h 22.5 km/h 51% 0 mm
05:49 -8 °C -16.4 °C 1023.6 hPa North 1.6 km/h 22.5 km/h 51% 0 mm
05:55 -8.1 °C -15.9 °C 1023.6 hPa Calm   12.9 km/h 53% 0 mm
06:04 -8.1 °C -16.5 °C 1023.6 hPa North 1.6 km/h 12.9 km/h 51% 0 mm
06:09 -8.1 °C -16.4 °C 1023.9 hPa North 3.2 km/h 12.9 km/h 51% 0 mm
06:14 -8.1 °C -16.4 °C 1023.9 hPa NNE 1.6 km/h 19.3 km/h 51% 0 mm
06:19 -8.1 °C -16.5 °C 1023.9 hPa NNW 1.6 km/h 19.3 km/h 51% 0 mm
06:24 -8.2 °C -16.6 °C 1023.9 hPa NNW 1.6 km/h 16.1 km/h 51% 0 mm
06:29 -8.3 °C -16.4 °C 1024.3 hPa Calm   6.4 km/h 52% 0 mm
06:34 -8.4 °C -16.6 °C 1024.3 hPa North 1.6 km/h 6.4 km/h 52% 0 mm
06:39 -8.5 °C -16.4 °C 1024.3 hPa North 1.6 km/h 6.4 km/h 53% 0 mm
06:44 -8.6 °C -16.3 °C 1024.3 hPa NNW 1.6 km/h 12.9 km/h 54% 0 mm
06:49 -8.6 °C -16.3 °C 1024.3 hPa North 1.6 km/h 14.5 km/h 54% 0 mm
06:54 -8.6 °C -16 °C 1024.6 hPa NNW 1.6 km/h 14.5 km/h 55% 0 mm
06:59 -8.5 °C -16.2 °C 1024.6 hPa NNW 1.6 km/h 12.9 km/h 54% 0 mm
07:04 -8.4 °C -16.1 °C 1024.6 hPa North 3.2 km/h 16.1 km/h 54% 0 mm
07:09 -8.4 °C -16.1 °C 1024.6 hPa North 3.2 km/h 16.1 km/h 54% 0 mm
07:14 -8.4 °C -16.1 °C 1024.6 hPa North 1.6 km/h 12.9 km/h 54% 0 mm
07:19 -8.3 °C -16 °C 1024.6 hPa NNW 1.6 km/h 16.1 km/h 54% 0 mm
07:24 -8.3 °C -15.9 °C 1024.9 hPa Calm   16.1 km/h 54% 0 mm
07:29 -8.2 °C -15.9 °C 1024.9 hPa North 3.2 km/h 14.5 km/h 54% 0 mm
07:34 -8.2 °C -15.8 °C 1024.9 hPa Calm   14.5 km/h 54% 0 mm
07:39 -8.1 °C -15.7 °C 1025.3 hPa NNW 4.8 km/h 12.9 km/h 54% 0 mm
07:44 -8 °C -15.4 °C 1025.3 hPa Calm   12.9 km/h 55% 0 mm
07:50 -7.9 °C -15.3 °C 1025.3 hPa North 1.6 km/h 16.1 km/h 55% 0 mm
07:59 -7.7 °C -15.2 °C 1025.6 hPa North 1.6 km/h 24.1 km/h 55% 0 mm
08:05 -7.7 °C -15.6 °C 1025.6 hPa North 3.2 km/h 24.1 km/h 53% 0 mm
08:14 -7.4 °C -15.4 °C 1025.6 hPa NNW 4.8 km/h 19.3 km/h 53% 0 mm
08:19 -7.3 °C -15.4 °C 1025.6 hPa NNE 3.2 km/h 24.1 km/h 52% 0 mm
08:24 -6.9 °C -15.1 °C 1026 hPa NNW 4.8 km/h 24.1 km/h 52% 0 mm
08:29 -6.5 °C -15 °C 1026 hPa North 6.4 km/h 19.3 km/h 51% 0 mm
08:34 -6.2 °C -14.9 °C 1026 hPa NNE 4.8 km/h 20.9 km/h 50% 0 mm
08:39 -5.8 °C -14.6 °C 1026 hPa North 6.4 km/h 20.9 km/h 50% 0 mm
08:44 -5.8 °C -14.6 °C 1026 hPa NNE 4.8 km/h 24.1 km/h 50% 0 mm
08:49 -5.7 °C -14.7 °C 1026 hPa North 4.8 km/h 24.1 km/h 49% 0 mm
08:54 -5.6 °C -15.1 °C 1025.6 hPa North 6.4 km/h 22.5 km/h 47% 0 mm
08:59 -5.4 °C -14.2 °C 1025.6 hPa North 3.2 km/h 17.7 km/h 50% 0 mm
09:04 -5.2 °C -14.8 °C 1025.6 hPa North 1.6 km/h 17.7 km/h 47% 0 mm
09:09 -5.1 °C -14.4 °C 1025.6 hPa NNE 4.8 km/h 17.7 km/h 48% 0 mm
09:14 -5.1 °C -14.4 °C 1025.6 hPa NNW 9.7 km/h 25.7 km/h 48% 0 mm
09:19 -5.1 °C -14.4 °C 1025.6 hPa NNW 4.8 km/h 25.7 km/h 48% 0 mm
09:24 -5.1 °C -14.9 °C 1025.6 hPa NNW 11.3 km/h 25.7 km/h 46% 0 mm
09:29 -5.1 °C -14.7 °C 1026 hPa NNE 3.2 km/h 25.7 km/h 47% 0 mm
09:34 -4.9 °C -14.3 °C 1026 hPa North 1.6 km/h 22.5 km/h 48% 0 mm
09:39 -4.6 °C -14.4 °C 1026 hPa NNE 4.8 km/h 22.5 km/h 46% 0 mm
09:44 -4.4 °C -14.6 °C 1026 hPa NNE 6.4 km/h 22.5 km/h 45% 0 mm
09:50 -4.3 °C -14.2 °C 1026 hPa NNW 3.2 km/h 17.7 km/h 46% 0 mm
10:00 -3.8 °C -14.1 °C 1026.3 hPa North 6.4 km/h 17.7 km/h 45% 0 mm
10:09 -3.6 °C -13.5 °C 1026.3 hPa NNE 3.2 km/h 20.9 km/h 46% 0 mm
10:14 -3.4 °C -14.2 °C 1026.3 hPa NNE 4.8 km/h 19.3 km/h 43% 0 mm
10:19 -3.3 °C -14.1 °C 1026.3 hPa NNW 4.8 km/h 17.7 km/h 43% 0 mm
10:24 -3.1 °C -13.1 °C 1026.6 hPa NNW 3.2 km/h 19.3 km/h 46% 0 mm
10:30 -3.2 °C -13.2 °C 1026.6 hPa NNW 9.7 km/h 25.7 km/h 46% 0 mm
10:39 -3.3 °C -13.3 °C 1026.6 hPa North 6.4 km/h 25.7 km/h 46% 0 mm
10:44 -3.1 °C -13.1 °C 1026.6 hPa North 4.8 km/h 25.7 km/h 46% 0 mm
10:50 -3.2 °C -13.2 °C 1026.6 hPa NNW 4.8 km/h 19.3 km/h 46% 0 mm
10:59 -2.7 °C -12.9 °C 1026.6 hPa NNW 4.8 km/h 19.3 km/h 45% 0 mm
11:04 -2.7 °C -13.9 °C 1026.6 hPa NNE 6.4 km/h 20.9 km/h 42% 0 mm
11:09 -2.6 °C -12.9 °C 1026.6 hPa North 6.4 km/h 20.9 km/h 45% 0 mm
11:14 -2.7 °C -13.8 °C 1026.6 hPa North 8 km/h 22.5 km/h 42% 0 mm
11:19 -2.6 °C -13.2 °C 1026.6 hPa NNW 8 km/h 22.5 km/h 44% 0 mm
11:24 -2.5 °C -13.1 °C 1026.6 hPa North 8 km/h 20.9 km/h 44% 0 mm
11:29 -2.6 °C -14.1 °C 1026.6 hPa NNW 9.7 km/h 20.9 km/h 41% 0 mm
11:34 -2.4 °C -13.3 °C 1026.6 hPa North 8 km/h 20.9 km/h 43% 0 mm
11:39 -2.2 °C -14 °C 1026.6 hPa North 6.4 km/h 24.1 km/h 40% 0 mm
11:44 -2.2 °C -12.8 °C 1026.6 hPa North 6.4 km/h 24.1 km/h 44% 0 mm
11:49 -1.9 °C -14 °C 1026.6 hPa North 3.2 km/h 11.3 km/h 39% 0 mm
11:54 -2.2 °C -13.9 °C 1026.6 hPa NW 14.5 km/h 24.1 km/h 40% 0 mm
11:59 -2.3 °C -12.3 °C 1026.6 hPa NNW 4.8 km/h 24.1 km/h 46% 0 mm
12:04 -2.1 °C -13.3 °C 1026.3 hPa North 3.2 km/h 25.7 km/h 42% 0 mm
12:09 -2 °C -13.2 °C 1026.3 hPa NW 11.3 km/h 25.7 km/h 42% 0 mm
12:14 -1.8 °C -12.5 °C 1026.3 hPa NNW 4.8 km/h 19.3 km/h 44% 0 mm
12:19 -1.8 °C -13.1 °C 1026.3 hPa NW 9.7 km/h 27.4 km/h 42% 0 mm
12:24 -1.7 °C -12.9 °C 1026.3 hPa NNE 4.8 km/h 27.4 km/h 42% 0 mm
12:29 -1.3 °C -12.9 °C 1026.6 hPa NNW 9.7 km/h 25.7 km/h 41% 0 mm
12:34 -1.4 °C -13 °C 1026.6 hPa NNW 6.4 km/h 25.7 km/h 41% 0 mm
12:39 -1.6 °C -12.8 °C 1026 hPa NNW 6.4 km/h 16.1 km/h 42% 0 mm
12:44 -1.1 °C -12.3 °C 1026.3 hPa NNW 1.6 km/h 14.5 km/h 42% 0 mm
12:49 -0.9 °C -12.8 °C 1026 hPa NNE 4.8 km/h 14.5 km/h 40% 0 mm
12:54 -1 °C -11.7 °C 1025.6 hPa NNW 1.6 km/h 14.5 km/h 44% 0 mm
12:59 -0.7 °C -12.3 °C 1026 hPa North 6.4 km/h 17.7 km/h 41% 0 mm
13:04 -0.9 °C -13.8 °C 1026 hPa NNE 1.6 km/h 17.7 km/h 37% 0 mm
13:09 -1 °C -12.9 °C 1026 hPa NNW 3.2 km/h 17.7 km/h 40% 0 mm
13:14 -0.6 °C -12.9 °C 1025.6 hPa NNW 3.2 km/h 14.5 km/h 39% 0 mm
13:19 -0.6 °C -13.2 °C 1025.3 hPa NW 8 km/h 17.7 km/h 38% 0 mm
13:24 -0.4 °C -14.1 °C 1025.6 hPa Calm   17.7 km/h 35% 0 mm
13:29 -0.3 °C -12.9 °C 1025.6 hPa NNW 6.4 km/h 16.1 km/h 38% 0 mm
13:34 -0.2 °C -13.1 °C 1025.3 hPa NW 4.8 km/h 16.1 km/h 37% 0 mm
13:40 -0.2 °C -13.4 °C 1025.3 hPa NW 14.5 km/h 24.1 km/h 36% 0 mm
13:49 0 °C -13.3 °C 1024.9 hPa NNE 1.6 km/h 27.4 km/h 36% 0 mm
13:59 0 °C -13.7 °C 1024.9 hPa North 3.2 km/h 24.1 km/h 35% 0 mm
14:04 0 °C -12.9 °C 1024.9 hPa Calm   9.7 km/h 37% 0 mm
14:09 0.1 °C -13.6 °C 1024.9 hPa WNW 1.6 km/h 16.1 km/h 35% 0 mm
14:14 0.3 °C -12.7 °C 1024.9 hPa NW 4.8 km/h 16.1 km/h 37% 0 mm
14:19 0.4 °C -13.3 °C 1024.6 hPa WNW 4.8 km/h 14.5 km/h 35% 0 mm
14:25 0.7 °C -13.1 °C 1024.6 hPa NE 3.2 km/h 14.5 km/h 35% 0 mm
14:34 0.7 °C -13.4 °C 1024.3 hPa NNW 8 km/h 17.7 km/h 34% 0 mm
14:39 0.4 °C -13.3 °C 1024.3 hPa NW 6.4 km/h 19.3 km/h 35% 0 mm
14:45 0.7 °C -13 °C 1024.3 hPa Calm   19.3 km/h 35% 0 mm
14:50 1.1 °C -13.1 °C 1024.3 hPa NW 6.4 km/h 9.7 km/h 34% 0 mm
14:55 1.1 °C -13.1 °C 1024.3 hPa Calm   9.7 km/h 34% 0 mm
15:04 1.3 °C -14 °C 1024.3 hPa NW 1.6 km/h 12.9 km/h 31% 0 mm
15:09 1.2 °C -14.1 °C 1023.9 hPa NNE 4.8 km/h 12.9 km/h 31% 0 mm
15:14 1.2 °C -13.3 °C 1023.9 hPa North 1.6 km/h 9.7 km/h 33% 0 mm
15:19 1.3 °C -13.2 °C 1023.6 hPa NNW 1.6 km/h 8 km/h 33% 0 mm
15:24 1.3 °C -13.9 °C 1023.6 hPa Calm   9.7 km/h 31% 0 mm
15:29 1.3 °C -13.9 °C 1023.6 hPa NNE 3.2 km/h 17.7 km/h 31% 0 mm
15:34 1.5 °C -13.4 °C 1023.6 hPa North 4.8 km/h 17.7 km/h 32% 0 mm
15:39 1.6 °C -14.1 °C 1023.6 hPa NNW 1.6 km/h 11.3 km/h 30% 0 mm
15:44 1.6 °C -14.1 °C 1023.2 hPa Calm   8 km/h 30% 0 mm
15:49 1.6 °C -12.6 °C 1023.2 hPa North 3.2 km/h 12.9 km/h 34% 0 mm
15:54 1.7 °C -14.1 °C 1023.2 hPa NW 1.6 km/h 12.9 km/h 30% 0 mm
15:59 1.7 °C -13.7 °C 1023.2 hPa NW 4.8 km/h 9.7 km/h 31% 0 mm
16:04 1.7 °C -14 °C 1023.2 hPa NNE 1.6 km/h 11.3 km/h 30% 0 mm
16:09 1.8 °C -14 °C 1023.2 hPa Calm   11.3 km/h 30% 0 mm
16:14 1.9 °C -13.4 °C 1023.2 hPa Calm   6.4 km/h 31% 0 mm
16:19 2 °C -14.6 °C 1023.2 hPa NNE 1.6 km/h 8 km/h 28% 0 mm
16:24 1.8 °C -14.4 °C 1022.9 hPa NNW 1.6 km/h 8 km/h 29% 0 mm
16:29 1.7 °C -15.3 °C 1022.9 hPa NW 4.8 km/h 9.7 km/h 27% 0 mm
16:34 1.6 °C -14.9 °C 1023.2 hPa WNW 6.4 km/h 14.5 km/h 28% 0 mm
16:44 1.6 °C -14.6 °C 1022.9 hPa West 6.4 km/h 12.9 km/h 29% 0 mm
16:50 1.5 °C -15.1 °C 1023.2 hPa WNW 6.4 km/h 12.9 km/h 28% 0 mm
16:59 1.3 °C -14.8 °C 1022.9 hPa NW 1.6 km/h 19.3 km/h 29% 0 mm
17:04 1.3 °C -15.2 °C 1023.2 hPa WNW 1.6 km/h 9.7 km/h 28% 0 mm
17:09 1.3 °C -15.7 °C 1022.9 hPa West 3.2 km/h 9.7 km/h 27% 0 mm
17:14 1.2 °C -15.3 °C 1023.2 hPa West 6.4 km/h 12.9 km/h 28% 0 mm
17:19 1.2 °C -15.8 °C 1023.2 hPa NW 3.2 km/h 12.9 km/h 27% 0 mm
17:24 1.1 °C -15.4 °C 1023.2 hPa Calm   8 km/h 28% 0 mm
17:29 1.2 °C -15.3 °C 1022.9 hPa Calm   8 km/h 28% 0 mm
17:34 1.3 °C -14.8 °C 1022.9 hPa Calm   6.4 km/h 29% 0 mm
17:39 1.3 °C -15.2 °C 1023.2 hPa Calm   3.2 km/h 28% 0 mm
17:44 1.5 °C -15.1 °C 1022.9 hPa Calm   3.2 km/h 28% 0 mm
17:50 1.6 °C -15.9 °C 1022.9 hPa North 1.6 km/h 4.8 km/h 26% 0 mm
17:59 1 °C -17.3 °C 1022.9 hPa North 3.2 km/h 6.4 km/h 24% 0 mm
18:04 0.7 °C -16.2 °C 1022.9 hPa Calm   6.4 km/h 27% 0 mm
18:09 0.4 °C -17.3 °C 1022.9 hPa Calm   4.8 km/h 25% 0 mm
18:14 0.3 °C -15.7 °C 1022.9 hPa Calm   4.8 km/h 29% 0 mm
18:19 0.1 °C -15.5 °C 1022.9 hPa North 1.6 km/h 6.4 km/h 30% 0 mm
18:24 -0.1 °C -15.2 °C 1022.9 hPa Calm   6.4 km/h 31% 0 mm
18:29 -0.2 °C -15.7 °C 1022.9 hPa Calm   3.2 km/h 30% 0 mm
18:35 -0.3 °C -15.8 °C 1022.9 hPa Calm   1.6 km/h 30% 0 mm
18:44 -0.5 °C -14.8 °C 1022.6 hPa Calm   6.4 km/h 33% 0 mm
18:49 -0.4 °C -15.1 °C 1022.2 hPa Calm   6.4 km/h 32% 0 mm
18:54 -0.3 °C -15.1 °C 1022.2 hPa Calm   3.2 km/h 32% 0 mm
18:59 -0.3 °C -14.6 °C 1022.2 hPa Calm     33% 0 mm
19:04 -0.4 °C -15.1 °C 1022.2 hPa Calm     32% 0 mm
19:09 -0.5 °C -14.1 °C 1022.2 hPa Calm     35% 0 mm
19:14 -0.7 °C -13.9 °C 1022.2 hPa Calm     36% 0 mm
19:19 -0.9 °C -14.5 °C 1022.2 hPa Calm     35% 0 mm
19:24 -1.1 °C -15 °C 1022.2 hPa Calm     34% 0 mm
19:29 -1.3 °C -14.1 °C 1022.2 hPa Calm     37% 0 mm
19:34 -1.4 °C -13.9 °C 1021.9 hPa Calm     38% 0 mm
19:39 -1.7 °C -13.8 °C 1021.6 hPa Calm   1.6 km/h 39% 0 mm
19:44 -1.8 °C -14 °C 1021.6 hPa Calm   1.6 km/h 39% 0 mm
19:49 -1.9 °C -14.3 °C 1021.6 hPa Calm   1.6 km/h 38% 0 mm
19:54 -1.9 °C -14.4 °C 1021.6 hPa Calm   1.6 km/h 38% 0 mm
19:59 -2 °C -13.5 °C 1021.6 hPa Calm     41% 0 mm
20:04 -2.2 °C -13.1 °C 1021.6 hPa Calm     43% 0 mm
20:09 -2.6 °C -13.4 °C 1021.6 hPa Calm     43% 0 mm
20:14 -2.8 °C -13.4 °C 1021.6 hPa Calm   1.6 km/h 44% 0 mm
20:19 -2.8 °C -13.4 °C 1021.6 hPa Calm   1.6 km/h 44% 0 mm
20:25 -2.8 °C -13.3 °C 1021.2 hPa Calm     44% 0 mm
20:35 -3.1 °C -11.8 °C 1021.6 hPa Calm     51% 0 mm
20:40 -3.4 °C -12.1 °C 1021.6 hPa Calm     51% 0 mm
20:49 -3.5 °C -12.9 °C 1021.6 hPa Calm     48% 0 mm
20:54 -3.4 °C -13.7 °C 1021.2 hPa Calm     45% 0 mm
21:04 -3.4 °C -12.1 °C 1021.2 hPa Calm     51% 0 mm
21:09 -3.3 °C -12.8 °C 1021.2 hPa Calm     48% 0 mm
21:14 -3.2 °C -12.4 °C 1020.9 hPa Calm     49% 0 mm
21:19 -2.8 °C -10.6 °C 1020.9 hPa Calm     55% 0 mm
21:24 -2.7 °C -11.7 °C 1020.9 hPa Calm     50% 0 mm
21:29 -2.7 °C -11.7 °C 1020.9 hPa Calm     50% 0 mm
21:34 -2.6 °C -10.9 °C 1020.9 hPa Calm     53% 0 mm
21:39 -2.6 °C -11.8 °C 1020.5 hPa Calm     49% 0 mm
21:44 -2.4 °C -11.4 °C 1020.5 hPa Calm     50% 0 mm
21:49 -2.3 °C -11.3 °C 1020.2 hPa Calm     50% 0 mm
21:55 -2.3 °C -10.8 °C 1020.2 hPa Calm     52% 0 mm
22:04 -2.3 °C -9.3 °C 1020.5 hPa Calm     59% 0 mm
22:09 -2.3 °C -9.1 °C 1020.5 hPa Calm     60% 0 mm
22:14 -2.3 °C -9.1 °C 1020.5 hPa Calm     60% 0 mm
22:19 -2.3 °C -9.9 °C 1020.5 hPa Calm     56% 0 mm
22:24 -2.2 °C -10.5 °C 1020.9 hPa Calm     53% 0 mm
22:30 -2.2 °C -10.8 °C 1020.9 hPa Calm     52% 0 mm
22:39 -1.9 °C -10.7 °C 1020.2 hPa Calm     51% 0 mm
22:44 -1.7 °C -11.6 °C 1020.5 hPa Calm   3.2 km/h 47% 0 mm
22:49 -1.6 °C -12.6 °C 1020.5 hPa Calm   3.2 km/h 43% 0 mm
22:54 -1.6 °C -11.9 °C 1020.2 hPa Calm   3.2 km/h 45% 0 mm
22:59 -1.4 °C -11.3 °C 1020.2 hPa Calm   3.2 km/h 47% 0 mm
23:04 -1.5 °C -10.8 °C 1020.2 hPa Calm     49% 0 mm
23:09 -1.6 °C -9.7 °C 1020.2 hPa Calm     54% 0 mm
23:14 -1.6 °C -9.7 °C 1020.2 hPa Calm     54% 0 mm
23:19 -1.7 °C -10.7 °C 1020.2 hPa Calm     50% 0 mm
23:24 -1.7 °C -9.3 °C 1020.2 hPa Calm     56% 0 mm
23:29 -1.7 °C -9.3 °C 1020.5 hPa Calm     56% 0 mm
23:34 -1.8 °C -11.1 °C 1019.9 hPa Calm   1.6 km/h 49% 0 mm
23:40 -1.7 °C -13.2 °C 1019.5 hPa North 1.6 km/h 4.8 km/h 41% 0 mm
23:49 -1.3 °C -13.8 °C 1017.8 hPa SSW 4.8 km/h 11.3 km/h 38% 0 mm
23:54 -1.1 °C -14.6 °C 1017.8 hPa SW 6.4 km/h 12.9 km/h 35% 0 mm
23:59 -1.1 °C -14.7 °C 1017.5 hPa SSW 6.4 km/h 14.5 km/h 35% 0 mm
Westford Weather
Compliments of Weather Underground

 
 
Current Radar Loop:

Copyright © WestfordWeather.net 2007-2014. All rights reserved.